Regional Weather Roundup
Issued by NWS

Home | Current Version | Previous Version | Text Only | Print | Product List | Glossary Off
Versions: 1 2 3 4 5 6 7 8 9 10 11 12 13 14 15 16 17 18 19 20 21 22 23 24 25 26 27 28 29 30 31 32 33 34 35 36 37 38 39 40 41 42 43 44 45 46 47 48 49 50

274
ASUS45 KTFX 201910
RWRMT
MONTANA REGIONAL WEATHER ROUNDUP
NATIONAL WEATHER SERVICE GREAT FALLS MT
100 PM MDT SUN AUG 20 2017

NOTE: "FAIR" INDICATES FEW OR NO CLOUDS BELOW 12000 FEET WITH NO
SIGNIFICANT WEATHER AND/OR OBSTRUCTIONS TO VISIBILITY.

MTZ001>007-043-202000-
WEST OF THE DIVIDE

CITY           SKY/WX    TMP DP  RH WIND       PRES   REMARKS
KALISPELL      CLOUDY    71  41  33 S8        30.06F
MISSOULA       PTSUNNY   72  38  29 CALM      30.09F HAZE
BUTTE          SUNNY     69  30  23 E6        30.16F
MULLAN PASS    PTSUNNY   61  34  36 VRB5      30.21S
ANACONDA         N/A     70  32  24 N6        30.13F
DEER LODGE       N/A     70  34  26 CALM      30.15F
EUREKA           N/A     72  30  21 MISG      30.06F
HAMILTON         N/A     72  36  26 N5        30.10F
LIBBY            N/A     68  36  30 CALM      30.06S
PLAINS           N/A     77  40  26 CALM      30.07
RONAN            N/A     73  41  31 CALM      30.13S
$$

MTZ008-052>055-202000-
SOUTHWEST MONTANA

CITY           SKY/WX    TMP DP  RH WIND       PRES   REMARKS
BOZEMAN        SUNNY     73  38  27 N3        30.10F
DILLON         SUNNY     70  37  29 CALM      30.12F
W YELLOWSTONE  SUNNY     70  30  23 SW10G21   30.19F
ENNIS          SUNNY     73  36  25 VRB6      30.17F
THREE FORKS      N/A     74  38  27 CALM      30.08F
TWIN BRIDGES     N/A     71  35  26 CALM      30.10
$$

MTZ009-010-012-014-046-048-049-054-202000-
EAST SLOPES AND CENTRAL MONTANA

CITY           SKY/WX    TMP DP  RH WIND       PRES   REMARKS
CUT BANK       CLOUDY    72  25  17 NW9       30.02F
GREAT FALLS    CLOUDY    78  30  17 W13       30.03F
MALMSTROM AFB  PTSUNNY   73  33  23 W8        30.03F
HELENA         SUNNY     77  29  17 W18       30.08F
AUGUSTA          N/A     73  26  17 SW10      30.06F
BOWMANS CRNR     N/A     72  26  18 SW5       30.04F
CHOTEAU          N/A     75  27  16 NW5G13    30.05F
CONRAD           N/A     75  33  21 W1        30.05F
FAIRFIELD        N/A     73  23  15 NW6       30.03F
POWER            N/A     72  31  21 SW12      30.03F
RAYNESFORD       N/A     73  32  22 W15       30.05F
ULM              N/A     75  32  20 NW9       30.03F
$$

MTZ011-013-016-021-045-047-050-051-202000-
NORTH CENTRAL MONTANA

CITY           SKY/WX    TMP DP  RH WIND       PRES   REMARKS
HAVRE          SUNNY     78  36  21 W14       29.96F
LEWISTOWN      SUNNY     74  36  25 VRB5G17   30.03F
N BAR RANCH      N/A     75  37  25 SW12      30.06F
CHINOOK          N/A     75  37  25 W8        29.96F
DENTON           N/A     73  36  25 NW6       29.99F
GEYSER           N/A     73  32  21 W20G28    30.03F
GRASS RANGE      N/A     77  37  23 W8        29.98F
JUDITH GAP       N/A     74  34  23 SW16G23   30.05F
WINIFRED         N/A     72  37  27 N13       30.02F
$$

MTZ017>020-022>027-061-062-202000-
NORTHEAST MONTANA

CITY           SKY/WX    TMP DP  RH WIND       PRES   REMARKS
GLASGOW        MOSUNNY   76  33  21 S14       30.00F
JORDAN           N/A     79  35  20 SE14G21   30.00F
SIDNEY         SUNNY     75  38  26 SE8       30.04F
WOLF POINT     MOSUNNY   77  34  21 S6        30.02F
MALTA          MOSUNNY   79  37  22 S14G20    29.96F
PLENTYWOOD       N/A     73  30  20 CALM      30.04F
POPLAR           N/A     73  36  25 E3        30.03F
SCOBEY           N/A     73  31  21 SE7       30.03F
$$

MTZ028>42-056>058-202000-
SOUTHCENTRAL AND SOUTHEAST MONTANA

CITY           SKY/WX    TMP DP  RH WIND       PRES   REMARKS
BAKER          SUNNY     75  39  27 SE15G21   30.07F
BILLINGS       MOSUNNY   73  41  31 S6        30.02F
LIVINGSTON     SUNNY     77  40  26 N13       30.06F
MILES CITY     SUNNY     79  36  21 SE8       30.00F
BIG TIMBER     SUNNY     77  36  22 W21G26    30.07F
EKALAKA          N/A     75  39  27 E13       30.03F
HARLOWTON        N/A     75  37  25 MISG      30.05F
LAUREL           N/A     74  42  31 E2        30.02F
$$

REGIONAL REPORTS...DAKOTAS

CITY           SKY/WX    TMP DP  RH WIND       PRES   REMARKS
WILLISTON      SUNNY     74  33  22 VRB5      30.05F
MINOT          SUNNY     74  40  29 CALM      30.04F
DICKINSON      CLOUDY    68  39  34 SE9       30.06F
BEACH            N/A     70  36  28 SE10G16   30.10F
CROSBY           N/A     73  30  20 CALM      30.04F
TIOGA            N/A     72  30  21 CALM      30.07F
WATFORD CITY     N/A     73  32  21 NW5       30.05F
BISMARCK       CLOUDY    71  45  39 N9        30.07F
GRAND FORKS    MOSUNNY   78  47  33 NW13G23   29.96F
FARGO          CLOUDY    74  51  44 NW13      29.97S
BUFFALO SD       N/A     78  41  26 SE13G20   29.99F
RAPID CITY     SUNNY     76  48  37 MISG      30.07F
$$

REGIONAL REPORTS...WYOMING/IDAHO/WASHINGTON

CITY           SKY/WX    TMP DP  RH WIND       PRES   REMARKS
GILLETTE       SUNNY     83  45  26 SE23G33   30.02F
SHERIDAN       SUNNY     83  43  24 VRB6      30.00F
BUFFALO WY     SUNNY     82  37  20 SE14      30.04F
CODY           SUNNY     71  44  37 N10       30.08F
YELLOWSTONE LA   N/A     67  30  25 VRB3      30.26F
IDAHO FALLS    SUNNY     76  39  26 SW10      30.11F
SALMON         SUNNY     72  37  28 NW5       30.09F
BOISE          SUNNY     78  42  27 W9        30.05F
SPOKANE        PTSUNNY   75  42  30 SW10G17   30.08S
$$

REGIONAL REPORTS...ALBERTA

CITY           SKY/WX    TMP DP  RH WIND       PRES   REMARKS
EDMONTON       CLOUDY    59  41  51 W12G21    29.97R
CALGARY        CLOUDY    66  36  32 VRB2      29.98F
LETHBRIDGE     PTSUNNY   72  28  20 W5        29.98F
MEDICINE HAT   PTSUNNY   73  39  29 W14G22    29.93F
$$

REGIONAL REPORTS...SASKATCHEWAN

CITY           SKY/WX    TMP DP  RH WIND       PRES   REMARKS
SWIFT CURRENT  PTSUNNY   72  27  18 S13G21    29.97F
REGINA         PTSUNNY   66  37  34 W5        30.02S
SASKATOON      PTSUNNY   64  45  48 SW17G24   29.96S
$$




USA.gov is the U.S. government's official web portal to all federal, state and local government web resources and services.